Tracking 30923 objects as of 1-Jul-2025
HD Live streaming from Space Station
objects crossing your sky now

SAMSAT-ION

Track SAMSAT-ION now!
10-day predictions
SAMSAT-ION is classified as:


NORAD ID: 57173
Int'l Code: 2023-091H
Perigee: 506.9 km
Apogee: 521.3 km
Inclination: 97.6 °
Period: 94.8 minutes
Semi major axis: 6885 km
RCS: Unknown
Launch date: June 27, 2023
Source: (TBD)
Launch site: VOSTOCHNY COSMODROME (VOSTO)

Uplink (MHz):
Downlink (MHz): 437.400
Beacon (MHz): 437.400
Mode: 1k2*/2k4 FSK CW
Call sign: RS36S
Status: Active

Your satellite tracking list
Your tracking list is empty




NASA's NSSDC Master Catalog

Two Line Element Set (TLE):
1 57173U 23091H   25181.85924376  .00005834  00000-0  27665-3 0  9998
2 57173  97.5557 238.5135 0010414 263.6538  96.3510 15.19633284110797
Source of the keplerian elements: AFSPC